EW9119 Weather Reports


time (UTC)temp
C
wind
direction
speed
KPH
gust
KPH
rain 1hr
cm
rain 24hr
cm
rain mn
cm
humidity
%
barometer
mb
20260510201554 26 309 0.0 0.0 0.00 0.00 0.00 32 1011.8
20260510200113 26 329 0.0 0.0 0.00 0.00 0.00 31 1011.9
20260510194554 26 86 0.0 0.0 0.00 0.00 0.00 31 1012.1
20260510193046 26 117 0.0 0.0 0.00 0.00 0.00 29 1012.3
20260510191546 26 37 0.0 0.0 0.00 0.00 0.00 32 1012.3
20260510190032 26 311 0.0 0.0 0.00 0.00 0.00 30 1012.5
20260510184527 27 294 0.0 0.0 0.00 0.00 0.00 27 1012.5
20260510183125 27 305 0.0 0.0 0.00 0.00 0.00 30 1012.6
20260510181526 27 309 0.0 0.0 0.00 0.00 0.00 30 1012.7
20260510180014 27 301 0.0 0.0 0.00 0.00 0.00 31 1012.8
20260510174510 27 59 0.0 0.0 0.00 0.00 0.00 33 1013.0
20260510173006 27 148 0.0 0.0 0.00 0.00 0.00 36 1013.2
20260510171501 27 101 0.0 0.0 0.00 0.00 0.00 34 1013.1
20260510170107 27 306 0.0 0.0 0.00 0.00 0.00 33 1013.2
20260510164601 26 100 0.0 0.0 0.00 0.00 0.00 35 1013.3
20260510163049 26 314 0.0 0.0 0.00 0.00 0.00 36 1013.5
20260510161545 26 360 0.0 0.0 0.00 0.00 0.00 36 1013.7
20260510160040 26 334 0.0 0.0 0.00 0.00 0.00 43 1013.8
20260510154541 25 45 0.0 0.0 0.00 0.00 0.00 47 1013.8
20260510153038 25 307 0.0 0.0 0.00 0.00 0.00 49 1013.9
20260510151527 25 31 0.0 0.0 0.00 0.00 0.00 48 1014.0
20260510150022 25 303 0.0 0.0 0.00 0.00 0.00 45 1014.0
20260510144527 24 320 0.0 0.0 0.00 0.00 0.00 47 1014.0
20260510143013 23 322 0.0 0.0 0.00 0.00 0.00 52 1014.1
20260510141513 22 297 0.0 0.0 0.00 0.00 0.00 55 1014.2
20260510140005 21 296 0.0 0.0 0.00 0.00 0.00 58 1014.2
20260510134607 21 304 0.0 0.0 0.00 0.00 0.00 60 1014.3
20260510133113 20 202 0.0 0.0 0.00 0.00 0.00 49 1014.1
20260510131602 18 199 0.0 0.0 0.00 0.00 0.00 1 1014.1
20260510130047 17 27 0.0 0.0 0.00 0.00 0.00 1 1014.2
20260510124543 16 52 0.0 0.0 0.00 0.00 0.00 1 1014.1
20260510123052 15 55 0.0 0.0 0.00 0.00 0.00 1 1013.9
20260510121534 13 55 0.0 0.0 0.00 0.00 0.00 1 1013.7
20260510120032 12 62 0.0 0.0 0.00 0.00 0.00 1 1013.3
20260510114525 11 62 0.0 0.0 0.00 0.00 0.00 1 1012.9
20260510113023 11 62 0.0 0.0 0.00 0.00 0.00 1 1012.8
20260510111517 11 62 0.0 0.0 0.00 0.00 0.00 1 1012.6
20260510110012 11 62 0.0 0.0 0.00 0.00 0.00 1 1012.5
20260510104508 11 62 0.0 0.0 0.00 0.00 0.00 1 1012.1
20260510103005 11 63 0.0 0.0 0.00 0.00 0.00 1 1011.9
20260510101559 12 63 0.0 0.0 0.00 0.00 0.00 1 1011.7
20260510100055 12 63 0.0 0.0 0.00 0.00 0.00 1 1011.5
20260510094551 12 63 0.0 0.0 0.00 0.00 0.00 1 1011.3
20260510093046 12 63 0.0 0.0 0.00 0.00 0.00 1 1011.4
20260510091542 13 63 0.0 0.0 0.00 0.00 0.00 1 1011.4
20260510090038 13 63 0.0 0.0 0.00 0.00 0.00 1 1011.3
20260510084534 13 63 0.0 0.0 0.00 0.00 0.00 1 1011.2
20260510083029 13 63 0.0 0.0 0.00 0.00 0.00 1 1010.9
20260510081527 13 63 0.0 0.0 0.00 0.00 0.00 1 1010.8
20260510080020 13 63 0.0 0.0 0.00 0.00 0.00 1 1010.5
20260510074515 13 63 0.0 0.0 0.00 0.00 0.00 1 1010.5
20260510073012 14 63 0.0 0.0 0.00 0.00 0.00 1 1010.5
20260510071507 14 63 0.0 0.0 0.00 0.00 0.00 1 1010.4
20260510070004 14 63 0.0 0.0 0.00 0.00 0.00 1 1010.3
20260510064602 14 63 0.0 0.0 0.00 0.00 0.00 1 1010.4
20260510063055 15 62 0.0 0.0 0.00 0.00 0.00 1 1010.4
20260510061550 15 62 0.0 0.0 0.00 0.00 0.00 1 1010.3
20260510060045 15 62 0.0 0.0 0.00 0.00 0.00 1 1010.3
20260510054540 15 63 0.0 0.0 0.00 0.00 0.00 1 1010.5
20260510053037 15 63 0.0 0.0 0.00 0.00 0.00 1 1010.7
20260510051534 15 63 0.0 0.0 0.00 0.00 0.00 1 1010.7
20260510050033 16 63 0.0 0.0 0.00 0.00 0.00 1 1010.7
20260510044523 16 63 0.0 0.0 0.00 0.00 0.00 1 1010.6
20260510043019 16 63 0.0 0.0 0.00 0.00 0.00 1 1010.6
20260510041514 16 63 0.0 0.0 0.00 0.00 0.00 1 1010.7
20260510040012 16 63 0.0 0.0 0.00 0.00 0.00 1 1010.7
20260510034505 16 63 0.0 0.0 0.00 0.00 0.00 1 1010.7
20260510033001 16 63 0.0 0.0 0.00 0.00 0.00 1 1010.7
20260510031559 16 63 0.0 0.0 0.00 0.00 0.00 3 1010.6
20260510030052 17 63 0.0 0.0 0.00 0.00 0.00 11 1010.6
20260510024548 17 63 0.0 0.0 0.00 0.00 0.00 13 1010.6
20260510023044 17 63 0.0 0.0 0.00 0.00 0.00 22 1010.4
20260510021541 17 63 0.0 0.0 0.00 0.00 0.00 24 1010.1
20260510020035 18 63 0.0 0.0 0.00 0.00 0.00 30 1010.1
20260510014533 18 63 0.0 0.0 0.00 0.00 0.00 32 1009.9
20260510013026 18 63 0.0 0.0 0.00 0.00 0.00 39 1009.6
20260510011522 18 63 0.0 0.0 0.00 0.00 0.00 42 1009.2
20260510010019 19 63 0.0 0.0 0.00 0.00 0.00 48 1009.0
20260510004516 20 63 0.0 0.0 0.00 0.00 0.00 51 1008.7
20260510003009 20 63 0.0 0.0 0.00 0.00 0.00 53 1008.4
20260510001505 20 63 0.0 0.0 0.00 0.00 0.00 56 1008.4
20260509234558 21 63 0.0 0.0 0.00 0.00 0.00 59 1008.4
20260509233054 21 63 0.0 0.0 0.00 0.00 0.00 60 1007.9
20260509231550 21 63 0.0 0.0 0.00 0.00 0.00 61 1007.9
20260509230047 21 63 0.0 0.0 0.00 0.00 0.00 61 1007.6
20260509224556 21 90 0.0 0.0 0.00 0.00 0.00 61 1007.3
20260509223044 21 97 0.0 1.6 0.00 0.00 0.00 61 1007.5
20260509221547 21 65 0.0 4.8 0.00 0.00 0.00 62 1007.4
20260509220033 21 147 0.0 1.6 0.00 0.00 0.00 62 1007.5
20260509214529 22 43 0.0 0.0 0.00 0.00 0.00 62 1007.4
20260509213025 22 127 0.0 0.0 0.00 0.00 0.00 62 1007.5
20260509211520 22 26 0.0 3.2 0.00 0.00 0.00 62 1007.3
20260509210021 22 62 0.0 0.0 0.00 0.00 0.00 62 1007.0
20260509204512 22 121 0.0 0.0 0.00 0.00 0.00 62 1007.1
20260509203007 22 296 0.0 0.0 0.00 0.00 0.00 62 1007.1